Location: Quebec
(46.8000°N, 71.2500°W)
Time: 08:15:30
(UTC-05:00)

OTV 5 (USA 277) - Pass Details

Date: 11 October 2017
Orbit: 404 x 417 km, 43.0° (Epoch: 07 September)

Event Time Altitude Azimuth Distance (km) Brightness Sun altitude
Rises 18:53:37 0° 218° (SW) 2,346 ? -9.1°
Reaches altitude 10° 18:56:11 10° 199° (SSW) 1,486 ? -9.6°
Maximum altitude 18:58:31 18° 154° (SSE) 1,110 ? -10.0°
Enters shadow 19:00:17 13° 118° (ESE) 1,342 ? -10.3°
